Home   Weather   Woodbridge   Past weeks
Flag for South Africa

Past Weather in Woodbridge, South Africa — Yesterday and Last 2 Weeks

Now
57 °F

Clear.


Feels Like: 57 °F
Forecast: 71 / 44 °F
Wind: 5 mph from West

Location: Bloemfontein Airport

Current Time: May 25, 2019 at 7:30:26 pm

Latest Report: May 25, 2019 at 7:00 pm


Visibility: 10 mi

Pressure: 30.36 "Hg

Humidity: 63%

Dew Point: 45 °F

Location of WoodbridgeLocation

Past Weather in Woodbridge — Graph

°F

Woodbridge Temperature Yesterday

Maximum temperature yesterday: 73 °F (at 2:00 pm)
Minimum temperature yesterday: 41 °F (at 4:00 am)
Average temperature yesterday: 55 °F

High & Low Weather Summary for the Past Weeks

 TemperatureHumidityPressure
High77 °F (May 13, 1:00 pm)100% (May 11, 1:00 am)30.45 "Hg (May 11, 1:00 am)
Low37 °F (May 11, 6:00 am)25% (May 11, 4:00 pm)30.12 "Hg (May 20, 3:00 pm)
Average55 °F68%30.27 "Hg
* Reported May 10 6:00 pm — May 25 6:00 pm, Woodbridge. Weather by CustomWeather, © 2019

Note: Actual official high and low records may vary slightly from our data, if they occured in-between our weather recording intervals... More about our weather records

Advertising

Woodbridge Weather History for the Previous 24 Hours

Scroll right to see more
 ConditionsComfort  
Time TempWeatherWind HumidityBarometerVisibility
6:00 pm
Sat, May 25
63 °FClear.3 mph45%30.36 "Hg10 mi
5:00 pm70 °FSunny.5 mph33%30.33 "Hg10 mi
4:00 pm73 °FPassing clouds.2 mph27%30.33 "HgN/A
3:00 pm73 °FPassing clouds.2 mph29%30.33 "HgN/A
2:00 pm73 °FPassing clouds.5 mph31%30.36 "HgN/A
1:00 pm72 °FPassing clouds.5 mph33%30.39 "HgN/A
12:00 pm70 °FSunny.3 mph35%30.42 "Hg10 mi
11:00 am68 °FSunny.2 mph43%30.42 "Hg10 mi
10:00 am59 °FSunny.2 mph59%30.45 "Hg10 mi
9:00 am54 °FSunny.2 mph72%30.45 "Hg10 mi
8:53 am54 °FSunny.1 mph72%30.45 "Hg10 mi
8:00 am46 °FFog.3 mph87%30.45 "Hg3 mi
7:49 am45 °FFog.2 mph93%30.45 "Hg3 mi
7:00 am39 °FClear.1 mph93%30.42 "Hg4 mi
6:00 am41 °FPassing clouds.3 mph87%30.42 "HgN/A
5:00 am43 °FClear.1 mph93%30.39 "Hg10 mi
4:00 am41 °FQuite cool.2 mph93%30.39 "Hg4 mi
3:00 am43 °FQuite cool.2 mph93%30.42 "Hg4 mi
2:00 am45 °FQuite cool.No wind87%30.42 "Hg4 mi
1:41 am45 °FQuite cool.No wind87%30.42 "Hg4 mi
1:22 am45 °FFog.2 mph93%30.42 "Hg3 mi
1:00 am45 °FQuite cool.2 mph93%30.42 "Hg5 mi
12:00 am45 °FQuite cool.2 mph93%30.42 "Hg5 mi
11:00 pm
Fri, May 24
48 °FCool.3 mph82%30.42 "Hg6 mi
10:00 pm48 °FCool.2 mph82%30.42 "HgN/A
9:00 pm50 °FCool.3 mph76%30.39 "HgN/A
8:00 pm52 °FClear.2 mph77%30.39 "Hg10 mi
7:00 pm55 °FClear.1 mph67%30.39 "Hg10 mi
Weather by CustomWeather, © 2019

See weather overview